Time,TemperatureF,DewpointF,PressureIn,WindDirection,WindDirectionDegrees,WindSpeedMPH,WindSpeedGustMPH,Humidity,HourlyPrecipIn,Conditions,Clouds,dailyrainin,SoftwareType,DateUTC
2013-12-07 00:02:00,-13.4,-19.0,30.76,West,271,0.0,0.0,75,0.00,,,0.00,WUHU216DAVISVP2,2013-12-07 06:02:00,
2013-12-07 00:07:00,-13.3,-18.9,30.76,West,271,0.0,0.0,75,0.00,,,0.00,WUHU216DAVISVP2,2013-12-07 06:07:00,
2013-12-07 00:12:00,-13.1,-18.7,30.76,West,261,2.0,5.0,75,0.00,,,0.00,WUHU216DAVISVP2,2013-12-07 06:12:00,
2013-12-07 00:17:00,-13.1,-18.7,30.76,WSW,254,0.0,5.0,75,0.00,,,0.00,WUHU216DAVISVP2,2013-12-07 06:17:00,
2013-12-07 00:22:00,-13.2,-18.8,30.76,WSW,254,0.0,4.0,75,0.00,,,0.00,WUHU216DAVISVP2,2013-12-07 06:22:00,
2013-12-07 00:27:00,-13.3,-19.2,30.76,WSW,256,0.0,1.0,74,0.00,,,0.00,WUHU216DAVISVP2,2013-12-07 06:27:00,
2013-12-07 00:32:00,-13.5,-19.4,30.75,WSW,257,0.0,1.0,74,0.00,,,0.00,WUHU216DAVISVP2,2013-12-07 06:32:00,
2013-12-07 00:37:00,-13.6,-19.5,30.75,WSW,257,0.0,0.0,74,0.00,,,0.00,WUHU216DAVISVP2,2013-12-07 06:37:00,
2013-12-07 00:42:00,-13.9,-19.7,30.75,WSW,257,0.0,0.0,74,0.00,,,0.00,WUHU216DAVISVP2,2013-12-07 06:42:00,
2013-12-07 00:47:00,-14.1,-19.9,30.75,WSW,257,0.0,0.0,74,0.00,,,0.00,WUHU216DAVISVP2,2013-12-07 06:47:00,
2013-12-07 00:52:00,-14.3,-20.1,30.75,WSW,256,0.0,0.0,74,0.00,,,0.00,WUHU216DAVISVP2,2013-12-07 06:52:00,
2013-12-07 00:57:00,-14.5,-20.3,30.75,WSW,257,0.0,0.0,74,0.00,,,0.00,WUHU216DAVISVP2,2013-12-07 06:57:00,
2013-12-07 01:02:00,-14.7,-20.5,30.75,WSW,256,0.0,0.0,74,0.00,,,0.00,WUHU216DAVISVP2,2013-12-07 07:02:00,
2013-12-07 01:07:00,-14.8,-20.4,30.75,WSW,257,0.0,0.0,75,0.00,,,0.00,WUHU216DAVISVP2,2013-12-07 07:07:00,
2013-12-07 01:12:00,-14.9,-20.5,30.75,WSW,257,0.0,0.0,75,0.00,,,0.00,WUHU216DAVISVP2,2013-12-07 07:12:00,
2013-12-07 01:17:00,-14.9,-20.5,30.75,WSW,255,0.0,0.0,75,0.00,,,0.00,WUHU216DAVISVP2,2013-12-07 07:17:00,
2013-12-07 01:22:00,-14.8,-20.4,30.75,WSW,255,0.0,0.0,75,0.00,,,0.00,WUHU216DAVISVP2,2013-12-07 07:22:00,
2013-12-07 01:27:00,-14.7,-20.3,30.75,WSW,255,0.0,0.0,75,0.00,,,0.00,WUHU216DAVISVP2,2013-12-07 07:27:00,
2013-12-07 01:32:00,-14.7,-20.3,30.75,WSW,255,0.0,1.0,75,0.00,,,0.00,WUHU216DAVISVP2,2013-12-07 07:32:00,
2013-12-07 01:37:00,-14.6,-20.2,30.75,WSW,254,1.0,2.0,75,0.00,,,0.00,WUHU216DAVISVP2,2013-12-07 07:37:00,
2013-12-07 01:42:00,-14.6,-20.2,30.75,WSW,254,1.0,3.0,75,0.00,,,0.00,WUHU216DAVISVP2,2013-12-07 07:42:00,
2013-12-07 01:47:00,-14.6,-20.2,30.75,WSW,254,0.0,3.0,75,0.00,,,0.00,WUHU216DAVISVP2,2013-12-07 07:47:00,
2013-12-07 01:52:00,-14.6,-20.2,30.75,WSW,255,0.0,2.0,75,0.00,,,0.00,WUHU216DAVISVP2,2013-12-07 07:52:00,
2013-12-07 01:57:00,-14.6,-20.2,30.75,WSW,254,0.0,0.0,75,0.00,,,0.00,WUHU216DAVISVP2,2013-12-07 07:57:00,
2013-12-07 02:02:00,-14.6,-20.2,30.75,West,270,0.0,0.0,75,0.00,,,0.00,WUHU216DAVISVP2,2013-12-07 08:02:00,
2013-12-07 02:07:00,-14.5,-20.1,30.75,WSW,256,0.0,2.0,75,0.00,,,0.00,WUHU216DAVISVP2,2013-12-07 08:07:00,
2013-12-07 02:12:00,-14.5,-20.1,30.75,SW,221,4.0,4.0,75,0.00,,,0.00,WUHU216DAVISVP2,2013-12-07 08:12:00,
2013-12-07 02:17:00,-14.4,-20.0,30.75,SW,236,0.0,4.0,75,0.00,,,0.00,WUHU216DAVISVP2,2013-12-07 08:17:00,
2013-12-07 02:22:00,-14.4,-20.0,30.75,WSW,237,0.0,4.0,75,0.00,,,0.00,WUHU216DAVISVP2,2013-12-07 08:22:00,
2013-12-07 02:27:00,-14.5,-20.3,30.75,WSW,237,0.0,2.0,74,0.00,,,0.00,WUHU216DAVISVP2,2013-12-07 08:27:00,
2013-12-07 02:32:00,-14.6,-20.4,30.75,WSW,250,0.0,3.0,74,0.00,,,0.00,WUHU216DAVISVP2,2013-12-07 08:32:00,
2013-12-07 02:37:00,-14.7,-20.5,30.75,WSW,248,0.0,3.0,74,0.00,,,0.00,WUHU216DAVISVP2,2013-12-07 08:37:00,
2013-12-07 02:42:00,-14.7,-20.3,30.75,WSW,248,0.0,3.0,75,0.00,,,0.00,WUHU216DAVISVP2,2013-12-07 08:42:00,
2013-12-07 02:47:00,-14.7,-20.5,30.75,WSW,248,0.0,1.0,74,0.00,,,0.00,WUHU216DAVISVP2,2013-12-07 08:47:00,
2013-12-07 02:52:00,-14.8,-20.4,30.75,SW,236,0.0,3.0,75,0.00,,,0.00,WUHU216DAVISVP2,2013-12-07 08:52:00,
2013-12-07 02:57:00,-14.8,-20.4,30.76,SW,236,0.0,3.0,75,0.00,,,0.00,WUHU216DAVISVP2,2013-12-07 08:57:00,
2013-12-07 03:02:00,-14.9,-20.5,30.76,SW,232,0.0,1.0,75,0.00,,,0.00,WUHU216DAVISVP2,2013-12-07 09:02:00,
2013-12-07 03:07:00,-14.8,-20.4,30.76,WSW,240,2.0,2.0,75,0.00,,,0.00,WUHU216DAVISVP2,2013-12-07 09:07:00,
2013-12-07 03:12:00,-14.8,-20.4,30.76,WSW,246,0.0,2.0,75,0.00,,,0.00,WUHU216DAVISVP2,2013-12-07 09:12:00,
2013-12-07 03:17:00,-14.8,-20.4,30.76,WSW,246,0.0,2.0,75,0.00,,,0.00,WUHU216DAVISVP2,2013-12-07 09:17:00,
2013-12-07 03:22:00,-14.8,-20.4,30.76,WSW,246,0.0,2.0,75,0.00,,,0.00,WUHU216DAVISVP2,2013-12-07 09:22:00,
2013-12-07 03:27:00,-14.9,-20.5,30.76,WSW,244,0.0,1.0,75,0.00,,,0.00,WUHU216DAVISVP2,2013-12-07 09:27:00,
2013-12-07 03:32:00,-14.9,-20.5,30.76,WSW,244,0.0,1.0,75,0.00,,,0.00,WUHU216DAVISVP2,2013-12-07 09:32:00,
2013-12-07 03:37:00,-14.9,-20.5,30.76,WSW,244,1.0,2.0,75,0.00,,,0.00,WUHU216DAVISVP2,2013-12-07 09:37:00,
2013-12-07 03:42:00,-14.9,-20.5,30.76,WSW,244,0.0,2.0,75,0.00,,,0.00,WUHU216DAVISVP2,2013-12-07 09:42:00,
2013-12-07 03:47:00,-14.8,-20.4,30.76,SW,236,0.0,3.0,75,0.00,,,0.00,WUHU216DAVISVP2,2013-12-07 09:47:00,
2013-12-07 03:52:00,-14.8,-20.4,30.76,WSW,255,0.0,4.0,75,0.00,,,0.00,WUHU216DAVISVP2,2013-12-07 09:52:00,
2013-12-07 03:57:00,-14.8,-20.4,30.76,WSW,254,0.0,4.0,75,0.00,,,0.00,WUHU216DAVISVP2,2013-12-07 09:57:00,
2013-12-07 04:02:00,-14.9,-20.7,30.76,WSW,256,0.0,0.0,74,0.00,,,0.00,WUHU216DAVISVP2,2013-12-07 10:02:00,
2013-12-07 04:07:00,-15.1,-20.9,30.76,West,259,0.0,2.0,74,0.00,,,0.00,WUHU216DAVISVP2,2013-12-07 10:07:00,
2013-12-07 04:12:00,-15.3,-21.1,30.76,West,259,0.0,2.0,74,0.00,,,0.00,WUHU216DAVISVP2,2013-12-07 10:12:00,
2013-12-07 04:17:00,-15.5,-21.3,30.76,WSW,246,0.0,4.0,74,0.00,,,0.00,WUHU216DAVISVP2,2013-12-07 10:17:00,
2013-12-07 04:22:00,-15.6,-21.4,30.75,WSW,246,0.0,4.0,74,0.00,,,0.00,WUHU216DAVISVP2,2013-12-07 10:22:00,
2013-12-07 04:27:00,-15.7,-21.5,30.75,WSW,246,0.0,1.0,74,0.00,,,0.00,WUHU216DAVISVP2,2013-12-07 10:27:00,
2013-12-07 04:32:00,-15.8,-21.6,30.75,WSW,246,0.0,0.0,74,0.00,,,0.00,WUHU216DAVISVP2,2013-12-07 10:32:00,
2013-12-07 04:37:00,-15.8,-21.6,30.75,WSW,246,0.0,0.0,74,0.00,,,0.00,WUHU216DAVISVP2,2013-12-07 10:37:00,
2013-12-07 04:42:00,-15.8,-21.3,30.75,WSW,246,0.0,0.0,75,0.00,,,0.00,WUHU216DAVISVP2,2013-12-07 10:42:00,
2013-12-07 04:47:00,-15.8,-21.3,30.75,WSW,246,0.0,0.0,75,0.00,,,0.00,WUHU216DAVISVP2,2013-12-07 10:47:00,
2013-12-07 04:52:00,-15.7,-21.2,30.75,WSW,245,0.0,0.0,75,0.00,,,0.00,WUHU216DAVISVP2,2013-12-07 10:52:00,
2013-12-07 04:57:00,-15.5,-21.0,30.75,WSW,246,0.0,0.0,75,0.00,,,0.00,WUHU216DAVISVP2,2013-12-07 10:57:00,
2013-12-07 05:02:00,-15.4,-20.9,30.75,WSW,245,0.0,0.0,75,0.00,,,0.00,WUHU216DAVISVP2,2013-12-07 11:02:00,
2013-12-07 05:07:00,-15.3,-20.8,30.75,WSW,246,0.0,0.0,75,0.00,,,0.00,WUHU216DAVISVP2,2013-12-07 11:07:00,
2013-12-07 05:12:00,-15.4,-20.9,30.75,WSW,246,0.0,0.0,75,0.00,,,0.00,WUHU216DAVISVP2,2013-12-07 11:12:00,
2013-12-07 05:17:00,-15.5,-21.0,30.75,WSW,246,0.0,0.0,75,0.00,,,0.00,WUHU216DAVISVP2,2013-12-07 11:17:00,
2013-12-07 05:22:00,-15.6,-21.1,30.74,WSW,245,0.0,0.0,75,0.00,,,0.00,WUHU216DAVISVP2,2013-12-07 11:22:00,
2013-12-07 05:27:00,-15.6,-21.1,30.74,WSW,246,0.0,0.0,75,0.00,,,0.00,WUHU216DAVISVP2,2013-12-07 11:27:00,
2013-12-07 05:32:00,-15.7,-21.2,30.74,WSW,246,0.0,0.0,75,0.00,,,0.00,WUHU216DAVISVP2,2013-12-07 11:32:00,
2013-12-07 05:37:00,-15.8,-21.3,30.73,WSW,246,0.0,0.0,75,0.00,,,0.00,WUHU216DAVISVP2,2013-12-07 11:37:00,
2013-12-07 05:42:00,-16.0,-21.8,30.73,WSW,245,0.0,0.0,74,0.00,,,0.00,WUHU216DAVISVP2,2013-12-07 11:42:00,
2013-12-07 05:47:00,-16.3,-22.1,30.73,WSW,246,0.0,0.0,74,0.00,,,0.00,WUHU216DAVISVP2,2013-12-07 11:47:00,
2013-12-07 05:52:00,-16.6,-22.4,30.73,WSW,246,0.0,0.0,74,0.00,,,0.00,WUHU216DAVISVP2,2013-12-07 11:52:00,
2013-12-07 05:57:00,-16.8,-22.6,30.74,WSW,245,0.0,0.0,74,0.00,,,0.00,WUHU216DAVISVP2,2013-12-07 11:57:00,
2013-12-07 06:02:00,-16.9,-22.4,30.74,West,263,0.0,3.0,75,0.00,,,0.00,WUHU216DAVISVP2,2013-12-07 12:02:00,
2013-12-07 06:07:00,-16.9,-22.4,30.74,West,263,0.0,3.0,75,0.00,,,0.00,WUHU216DAVISVP2,2013-12-07 12:07:00,
2013-12-07 06:12:00,-16.7,-22.2,30.74,West,260,2.0,2.0,75,0.00,,,0.00,WUHU216DAVISVP2,2013-12-07 12:12:00,
2013-12-07 06:17:00,-16.7,-22.2,30.74,West,260,0.0,2.0,75,0.00,,,0.00,WUHU216DAVISVP2,2013-12-07 12:17:00,
2013-12-07 06:22:00,-16.6,-22.1,30.74,West,260,0.0,2.0,75,0.00,,,0.00,WUHU216DAVISVP2,2013-12-07 12:22:00,
2013-12-07 06:27:00,-16.5,-22.0,30.74,West,260,0.0,0.0,75,0.00,,,0.00,WUHU216DAVISVP2,2013-12-07 12:27:00,
2013-12-07 06:32:00,-16.5,-22.0,30.74,West,260,0.0,0.0,75,0.00,,,0.00,WUHU216DAVISVP2,2013-12-07 12:32:00,
2013-12-07 06:37:00,-16.3,-21.8,30.74,West,259,0.0,0.0,75,0.00,,,0.00,WUHU216DAVISVP2,2013-12-07 12:37:00,
2013-12-07 06:42:00,-16.2,-21.7,30.75,West,259,0.0,0.0,75,0.00,,,0.00,WUHU216DAVISVP2,2013-12-07 12:42:00,
2013-12-07 06:47:00,-16.1,-21.6,30.75,West,259,0.0,0.0,75,0.00,,,0.00,WUHU216DAVISVP2,2013-12-07 12:47:00,
2013-12-07 06:52:00,-16.0,-21.5,30.75,SW,229,0.0,3.0,75,0.00,,,0.00,WUHU216DAVISVP2,2013-12-07 12:52:00,
2013-12-07 06:57:00,-15.8,-21.3,30.75,SW,234,0.0,3.0,75,0.00,,,0.00,WUHU216DAVISVP2,2013-12-07 12:57:00,
2013-12-07 07:02:00,-15.7,-21.2,30.75,WSW,244,0.0,2.0,75,0.00,,,0.00,WUHU216DAVISVP2,2013-12-07 13:02:00,
2013-12-07 07:07:00,-15.7,-21.5,30.75,WSW,241,0.0,2.0,74,0.00,,,0.00,WUHU216DAVISVP2,2013-12-07 13:07:00,
2013-12-07 07:12:00,-15.7,-21.5,30.75,WSW,253,0.0,0.0,74,0.00,,,0.00,WUHU216DAVISVP2,2013-12-07 13:12:00,
2013-12-07 07:17:00,-15.8,-21.6,30.75,SW,221,0.0,0.0,74,0.00,,,0.00,WUHU216DAVISVP2,2013-12-07 13:17:00,
2013-12-07 07:22:00,-15.9,-21.7,30.75,SW,221,0.0,0.0,74,0.00,,,0.00,WUHU216DAVISVP2,2013-12-07 13:22:00,
2013-12-07 07:27:00,-16.0,-21.8,30.75,SW,235,0.0,0.0,74,0.00,,,0.00,WUHU216DAVISVP2,2013-12-07 13:27:00,
2013-12-07 07:32:00,-16.1,-21.9,30.75,SW,227,0.0,3.0,74,0.00,,,0.00,WUHU216DAVISVP2,2013-12-07 13:32:00,
2013-12-07 07:37:00,-16.1,-21.9,30.74,SW,227,0.0,3.0,74,0.00,,,0.00,WUHU216DAVISVP2,2013-12-07 13:37:00,
2013-12-07 07:42:00,-16.2,-22.0,30.75,SW,230,0.0,0.0,74,0.00,,,0.00,WUHU216DAVISVP2,2013-12-07 13:42:00,
2013-12-07 07:47:00,-16.3,-22.1,30.75,SW,232,0.0,3.0,74,0.00,,,0.00,WUHU216DAVISVP2,2013-12-07 13:47:00,
2013-12-07 07:52:00,-16.3,-22.1,30.75,SW,232,0.0,3.0,74,0.00,,,0.00,WUHU216DAVISVP2,2013-12-07 13:52:00,
2013-12-07 07:57:00,-16.3,-22.1,30.75,SW,232,0.0,2.0,74,0.00,,,0.00,WUHU216DAVISVP2,2013-12-07 13:57:00,
2013-12-07 08:02:00,-16.3,-22.1,30.75,SW,230,0.0,4.0,74,0.00,,,0.00,WUHU216DAVISVP2,2013-12-07 14:02:00,
2013-12-07 08:07:00,-16.3,-22.1,30.75,SW,222,0.0,4.0,74,0.00,,,0.00,WUHU216DAVISVP2,2013-12-07 14:07:00,
2013-12-07 08:12:00,-16.3,-22.1,30.75,SW,222,0.0,3.0,74,0.00,,,0.00,WUHU216DAVISVP2,2013-12-07 14:12:00,
2013-12-07 08:17:00,-16.3,-22.1,30.75,SSW,213,3.0,3.0,74,0.00,,,0.00,WUHU216DAVISVP2,2013-12-07 14:17:00,
2013-12-07 08:22:00,-16.3,-22.1,30.75,SW,215,0.0,3.0,74,0.00,,,0.00,WUHU216DAVISVP2,2013-12-07 14:22:00,
2013-12-07 08:27:00,-16.2,-22.0,30.75,SW,214,0.0,4.0,74,0.00,,,0.00,WUHU216DAVISVP2,2013-12-07 14:27:00,
2013-12-07 08:32:00,-16.1,-21.9,30.76,SW,221,0.0,4.0,74,0.00,,,0.00,WUHU216DAVISVP2,2013-12-07 14:32:00,
2013-12-07 08:37:00,-15.9,-21.7,30.75,SW,214,4.0,6.0,74,0.00,,,0.00,WUHU216DAVISVP2,2013-12-07 14:37:00,
2013-12-07 08:42:00,-15.7,-21.5,30.76,WSW,246,0.0,6.0,74,0.00,,,0.00,WUHU216DAVISVP2,2013-12-07 14:42:00,
2013-12-07 08:47:00,-15.4,-21.2,30.76,West,267,0.0,5.0,74,0.00,,,0.00,WUHU216DAVISVP2,2013-12-07 14:47:00,
2013-12-07 08:52:00,-15.1,-20.9,30.76,WSW,250,0.0,5.0,74,0.00,,,0.00,WUHU216DAVISVP2,2013-12-07 14:52:00,
2013-12-07 08:57:00,-14.8,-20.6,30.76,West,261,0.0,6.0,74,0.00,,,0.00,WUHU216DAVISVP2,2013-12-07 14:57:00,
2013-12-07 09:02:00,-14.7,-20.5,30.76,WSW,244,1.0,6.0,74,0.00,,,0.00,WUHU216DAVISVP2,2013-12-07 15:02:00,
2013-12-07 09:07:00,-14.6,-20.7,30.76,WSW,238,4.0,6.0,73,0.00,,,0.00,WUHU216DAVISVP2,2013-12-07 15:07:00,
2013-12-07 09:12:00,-14.5,-20.6,30.76,WSW,254,0.0,6.0,73,0.00,,,0.00,WUHU216DAVISVP2,2013-12-07 15:12:00,
2013-12-07 09:17:00,-14.4,-20.2,30.76,WSW,238,1.0,6.0,74,0.00,,,0.00,WUHU216DAVISVP2,2013-12-07 15:17:00,
2013-12-07 09:22:00,-14.2,-20.0,30.77,SW,221,0.0,5.0,74,0.00,,,0.00,WUHU216DAVISVP2,2013-12-07 15:22:00,
2013-12-07 09:27:00,-14.0,-20.1,30.76,SW,227,2.0,5.0,73,0.00,,,0.00,WUHU216DAVISVP2,2013-12-07 15:27:00,
2013-12-07 09:32:00,-13.9,-20.0,30.76,SSW,210,3.0,7.0,73,0.00,,,0.00,WUHU216DAVISVP2,2013-12-07 15:32:00,
2013-12-07 09:37:00,-13.9,-20.0,30.77,WSW,257,2.0,7.0,73,0.00,,,0.00,WUHU216DAVISVP2,2013-12-07 15:37:00,
2013-12-07 09:42:00,-13.9,-20.0,30.77,WSW,257,1.0,6.0,73,0.00,,,0.00,WUHU216DAVISVP2,2013-12-07 15:42:00,
2013-12-07 09:47:00,-13.6,-19.7,30.77,WSW,252,3.0,7.0,73,0.00,,,0.00,WUHU216DAVISVP2,2013-12-07 15:47:00,
2013-12-07 09:52:00,-13.2,-19.3,30.77,WSW,251,2.0,7.0,73,0.00,,,0.00,WUHU216DAVISVP2,2013-12-07 15:52:00,
2013-12-07 09:57:00,-13.0,-19.1,30.77,WSW,241,0.0,7.0,73,0.00,,,0.00,WUHU216DAVISVP2,2013-12-07 15:57:00,
2013-12-07 10:02:00,-12.8,-18.9,30.77,WSW,256,0.0,6.0,73,0.00,,,0.00,WUHU216DAVISVP2,2013-12-07 16:02:00,
2013-12-07 10:07:00,-12.5,-18.6,30.78,WSW,237,4.0,6.0,73,0.00,,,0.00,WUHU216DAVISVP2,2013-12-07 16:07:00,
2013-12-07 10:12:00,-12.2,-18.4,30.78,WSW,253,0.0,5.0,73,0.00,,,0.00,WUHU216DAVISVP2,2013-12-07 16:12:00,
2013-12-07 10:17:00,-11.8,-18.0,30.78,WNW,284,0.0,4.0,73,0.00,,,0.00,WUHU216DAVISVP2,2013-12-07 16:17:00,
2013-12-07 10:22:00,-11.4,-17.6,30.78,West,260,0.0,4.0,73,0.00,,,0.00,WUHU216DAVISVP2,2013-12-07 16:22:00,
2013-12-07 10:27:00,-11.1,-17.3,30.78,WSW,254,0.0,4.0,73,0.00,,,0.00,WUHU216DAVISVP2,2013-12-07 16:27:00,
2013-12-07 10:32:00,-10.7,-16.9,30.78,West,260,0.0,5.0,73,0.00,,,0.00,WUHU216DAVISVP2,2013-12-07 16:32:00,
2013-12-07 10:37:00,-10.2,-16.4,30.78,WSW,252,0.0,5.0,73,0.00,,,0.00,WUHU216DAVISVP2,2013-12-07 16:37:00,
2013-12-07 10:42:00,-10.1,-16.6,30.78,WSW,254,2.0,9.0,72,0.00,,,0.00,WUHU216DAVISVP2,2013-12-07 16:42:00,
2013-12-07 10:47:00,-10.1,-16.6,30.78,West,268,3.0,9.0,72,0.00,,,0.00,WUHU216DAVISVP2,2013-12-07 16:47:00,
2013-12-07 10:52:00,-10.2,-16.7,30.78,West,259,1.0,10.0,72,0.00,,,0.00,WUHU216DAVISVP2,2013-12-07 16:52:00,
2013-12-07 10:57:00,-9.9,-16.4,30.78,WSW,250,2.0,10.0,72,0.00,,,0.00,WUHU216DAVISVP2,2013-12-07 16:57:00,
2013-12-07 11:02:00,-9.6,-16.1,30.77,WSW,245,0.0,6.0,72,0.00,,,0.00,WUHU216DAVISVP2,2013-12-07 17:02:00,
2013-12-07 11:07:00,-9.3,-15.8,30.77,West,259,0.0,9.0,72,0.00,,,0.00,WUHU216DAVISVP2,2013-12-07 17:07:00,
2013-12-07 11:12:00,-9.0,-15.5,30.77,WSW,246,0.0,9.0,72,0.00,,,0.00,WUHU216DAVISVP2,2013-12-07 17:12:00,
2013-12-07 11:17:00,-8.9,-15.7,30.77,WSW,254,0.0,6.0,71,0.00,,,0.00,WUHU216DAVISVP2,2013-12-07 17:17:00,
2013-12-07 11:22:00,-8.9,-15.7,30.76,WNW,288,0.0,6.0,71,0.00,,,0.00,WUHU216DAVISVP2,2013-12-07 17:22:00,
2013-12-07 11:27:00,-9.0,-15.8,30.76,West,263,4.0,6.0,71,0.00,,,0.00,WUHU216DAVISVP2,2013-12-07 17:27:00,
2013-12-07 11:32:00,-9.0,-15.8,30.76,West,265,3.0,5.0,71,0.00,,,0.00,WUHU216DAVISVP2,2013-12-07 17:32:00,
2013-12-07 11:37:00,-8.9,-15.7,30.76,WSW,256,0.0,10.0,71,0.00,,,0.00,WUHU216DAVISVP2,2013-12-07 17:37:00,
2013-12-07 11:42:00,-8.5,-15.0,30.75,West,275,1.0,10.0,72,0.00,,,0.00,WUHU216DAVISVP2,2013-12-07 17:42:00,
2013-12-07 11:47:00,-8.1,-14.9,30.75,West,263,0.0,5.0,71,0.00,,,0.00,WUHU216DAVISVP2,2013-12-07 17:47:00,
2013-12-07 11:52:00,-8.1,-14.9,30.75,SW,223,0.0,5.0,71,0.00,,,0.00,WUHU216DAVISVP2,2013-12-07 17:52:00,
2013-12-07 11:57:00,-7.9,-14.7,30.75,West,263,0.0,5.0,71,0.00,,,0.00,WUHU216DAVISVP2,2013-12-07 17:57:00,
2013-12-07 12:02:00,-7.5,-14.4,30.75,WSW,250,0.0,4.0,71,0.00,,,0.00,WUHU216DAVISVP2,2013-12-07 18:02:00,
2013-12-07 12:07:00,-7.5,-14.4,30.75,WSW,254,1.0,4.0,71,0.00,,,0.00,WUHU216DAVISVP2,2013-12-07 18:07:00,
2013-12-07 12:12:00,-7.3,-14.2,30.75,WSW,238,3.0,5.0,71,0.00,,,0.00,WUHU216DAVISVP2,2013-12-07 18:12:00,
2013-12-07 12:17:00,-7.2,-14.1,30.74,SW,234,0.0,6.0,71,0.00,,,0.00,WUHU216DAVISVP2,2013-12-07 18:17:00,
2013-12-07 12:22:00,-7.0,-13.9,30.74,West,267,0.0,6.0,71,0.00,,,0.00,WUHU216DAVISVP2,2013-12-07 18:22:00,
2013-12-07 12:27:00,-6.8,-14.0,30.74,West,269,4.0,6.0,70,0.00,,,0.00,WUHU216DAVISVP2,2013-12-07 18:27:00,
2013-12-07 12:32:00,-7.1,-14.2,30.74,WSW,247,0.0,7.0,70,0.00,,,0.00,WUHU216DAVISVP2,2013-12-07 18:32:00,
2013-12-07 12:37:00,-7.1,-14.2,30.74,WSW,245,0.0,7.0,70,0.00,,,0.00,WUHU216DAVISVP2,2013-12-07 18:37:00,
2013-12-07 12:42:00,-6.8,-13.7,30.74,WSW,242,0.0,6.0,71,0.00,,,0.00,WUHU216DAVISVP2,2013-12-07 18:42:00,
2013-12-07 12:47:00,-6.6,-13.5,30.74,West,262,0.0,5.0,71,0.00,,,0.00,WUHU216DAVISVP2,2013-12-07 18:47:00,
2013-12-07 12:52:00,-6.5,-13.4,30.74,WSW,250,0.0,6.0,71,0.00,,,0.00,WUHU216DAVISVP2,2013-12-07 18:52:00,
2013-12-07 12:57:00,-6.5,-13.7,30.74,West,259,0.0,7.0,70,0.00,,,0.00,WUHU216DAVISVP2,2013-12-07 18:57:00,
2013-12-07 13:02:00,-6.4,-13.3,30.74,WSW,257,0.0,7.0,71,0.00,,,0.00,WUHU216DAVISVP2,2013-12-07 19:02:00,
2013-12-07 13:07:00,-6.4,-13.3,30.74,SSW,200,0.0,7.0,71,0.00,,,0.00,WUHU216DAVISVP2,2013-12-07 19:07:00,
2013-12-07 13:12:00,-6.2,-13.1,30.74,SW,234,2.0,7.0,71,0.00,,,0.00,WUHU216DAVISVP2,2013-12-07 19:12:00,
2013-12-07 13:17:00,-6.2,-13.4,30.74,WSW,248,0.0,7.0,70,0.00,,,0.00,WUHU216DAVISVP2,2013-12-07 19:17:00,
2013-12-07 13:22:00,-6.1,-13.0,30.74,WSW,246,0.0,10.0,71,0.00,,,0.00,WUHU216DAVISVP2,2013-12-07 19:22:00,
2013-12-07 13:27:00,-6.0,-12.9,30.74,SW,234,7.0,10.0,71,0.00,,,0.00,WUHU216DAVISVP2,2013-12-07 19:27:00,
2013-12-07 13:32:00,-6.2,-13.4,30.74,WSW,244,0.0,7.0,70,0.00,,,0.00,WUHU216DAVISVP2,2013-12-07 19:32:00,
2013-12-07 13:37:00,-6.4,-13.6,30.74,WSW,258,0.0,10.0,70,0.00,,,0.00,WUHU216DAVISVP2,2013-12-07 19:37:00,
2013-12-07 13:42:00,-6.3,-13.5,30.73,SW,232,5.0,12.0,70,0.00,,,0.00,WUHU216DAVISVP2,2013-12-07 19:42:00,
2013-12-07 13:47:00,-6.4,-13.3,30.73,SW,218,0.0,12.0,71,0.00,,,0.00,WUHU216DAVISVP2,2013-12-07 19:47:00,
2013-12-07 13:52:00,-6.3,-13.2,30.73,West,261,0.0,9.0,71,0.00,,,0.00,WUHU216DAVISVP2,2013-12-07 19:52:00,
2013-12-07 13:57:00,-6.3,-13.2,30.73,West,271,6.0,9.0,71,0.00,,,0.00,WUHU216DAVISVP2,2013-12-07 19:57:00,
2013-12-07 14:02:00,-6.3,-13.2,30.73,South,186,0.0,10.0,71,0.00,,,0.00,WUHU216DAVISVP2,2013-12-07 20:02:00,
2013-12-07 14:07:00,-6.1,-13.0,30.73,SSW,200,0.0,10.0,71,0.00,,,0.00,WUHU216DAVISVP2,2013-12-07 20:07:00,
2013-12-07 14:12:00,-6.1,-13.0,30.73,SSW,213,3.0,7.0,71,0.00,,,0.00,WUHU216DAVISVP2,2013-12-07 20:12:00,
2013-12-07 14:17:00,-6.4,-13.6,30.72,West,261,0.0,12.0,70,0.00,,,0.00,WUHU216DAVISVP2,2013-12-07 20:17:00,
2013-12-07 14:22:00,-6.4,-13.3,30.72,SSW,213,1.0,12.0,71,0.00,,,0.00,WUHU216DAVISVP2,2013-12-07 20:22:00,
2013-12-07 14:27:00,-6.4,-13.3,30.72,SW,227,2.0,6.0,71,0.00,,,0.00,WUHU216DAVISVP2,2013-12-07 20:27:00,
2013-12-07 14:32:00,-6.7,-13.9,30.72,SW,232,0.0,11.0,70,0.00,,,0.00,WUHU216DAVISVP2,2013-12-07 20:32:00,
2013-12-07 14:37:00,-6.9,-13.8,30.72,SSW,203,0.0,11.0,71,0.00,,,0.00,WUHU216DAVISVP2,2013-12-07 20:37:00,
2013-12-07 14:42:00,-6.8,-13.7,30.72,SSW,195,1.0,9.0,71,0.00,,,0.00,WUHU216DAVISVP2,2013-12-07 20:42:00,
2013-12-07 14:47:00,-7.1,-14.0,30.72,WSW,248,0.0,10.0,71,0.00,,,0.00,WUHU216DAVISVP2,2013-12-07 20:47:00,
2013-12-07 14:52:00,-7.4,-14.3,30.72,West,259,0.0,10.0,71,0.00,,,0.00,WUHU216DAVISVP2,2013-12-07 20:52:00,
2013-12-07 14:57:00,-7.4,-14.3,30.71,SW,232,0.0,8.0,71,0.00,,,0.00,WUHU216DAVISVP2,2013-12-07 20:57:00,
2013-12-07 15:02:00,-7.3,-13.9,30.71,SW,232,1.0,7.0,72,0.00,,,0.00,WUHU216DAVISVP2,2013-12-07 21:02:00,
2013-12-07 15:07:00,-7.3,-14.2,30.71,SSW,194,0.0,8.0,71,0.00,,,0.00,WUHU216DAVISVP2,2013-12-07 21:07:00,
2013-12-07 15:12:00,-7.5,-14.4,30.71,SSW,205,3.0,9.0,71,0.00,,,0.00,WUHU216DAVISVP2,2013-12-07 21:12:00,
2013-12-07 15:17:00,-7.8,-14.6,30.71,SW,232,0.0,9.0,71,0.00,,,0.00,WUHU216DAVISVP2,2013-12-07 21:17:00,
2013-12-07 15:22:00,-7.9,-14.5,30.71,WSW,254,1.0,7.0,72,0.00,,,0.00,WUHU216DAVISVP2,2013-12-07 21:22:00,
2013-12-07 15:27:00,-7.8,-14.4,30.70,SW,221,0.0,5.0,72,0.00,,,0.00,WUHU216DAVISVP2,2013-12-07 21:27:00,
2013-12-07 15:32:00,-7.7,-14.3,30.70,West,267,0.0,4.0,72,0.00,,,0.00,WUHU216DAVISVP2,2013-12-07 21:32:00,
2013-12-07 15:37:00,-7.8,-14.4,30.70,WSW,240,0.0,9.0,72,0.00,,,0.00,WUHU216DAVISVP2,2013-12-07 21:37:00,
2013-12-07 15:42:00,-7.8,-14.4,30.70,WSW,254,0.0,9.0,72,0.00,,,0.00,WUHU216DAVISVP2,2013-12-07 21:42:00,
2013-12-07 15:47:00,-7.9,-14.5,30.70,WSW,244,0.0,5.0,72,0.00,,,0.00,WUHU216DAVISVP2,2013-12-07 21:47:00,
2013-12-07 15:52:00,-8.1,-14.7,30.70,SW,235,0.0,5.0,72,0.00,,,0.00,WUHU216DAVISVP2,2013-12-07 21:52:00,
2013-12-07 15:57:00,-8.2,-14.8,30.70,West,267,0.0,5.0,72,0.00,,,0.00,WUHU216DAVISVP2,2013-12-07 21:57:00,
2013-12-07 16:02:00,-8.4,-15.0,30.70,SW,236,0.0,2.0,72,0.00,,,0.00,WUHU216DAVISVP2,2013-12-07 22:02:00,
2013-12-07 16:07:00,-8.4,-15.0,30.70,WSW,244,0.0,5.0,72,0.00,,,0.00,WUHU216DAVISVP2,2013-12-07 22:07:00,
2013-12-07 16:12:00,-8.5,-15.0,30.70,WSW,245,0.0,5.0,72,0.00,,,0.00,WUHU216DAVISVP2,2013-12-07 22:12:00,
2013-12-07 16:17:00,-8.5,-14.8,30.70,SW,227,0.0,2.0,73,0.00,,,0.00,WUHU216DAVISVP2,2013-12-07 22:17:00,
2013-12-07 16:22:00,-8.7,-15.0,30.70,SSW,209,0.0,7.0,73,0.00,,,0.00,WUHU216DAVISVP2,2013-12-07 22:22:00,
2013-12-07 16:27:00,-8.8,-15.1,30.70,SW,221,1.0,7.0,73,0.00,,,0.00,WUHU216DAVISVP2,2013-12-07 22:27:00,
2013-12-07 16:32:00,-8.9,-15.2,30.70,SW,232,2.0,5.0,73,0.00,,,0.00,WUHU216DAVISVP2,2013-12-07 22:32:00,
2013-12-07 16:37:00,-9.0,-15.3,30.70,SW,228,0.0,5.0,73,0.00,,,0.00,WUHU216DAVISVP2,2013-12-07 22:37:00,
2013-12-07 16:42:00,-9.1,-15.4,30.69,SSW,198,5.0,5.0,73,0.00,,,0.00,WUHU216DAVISVP2,2013-12-07 22:42:00,
2013-12-07 16:47:00,-9.3,-15.6,30.69,SSW,198,0.0,5.0,73,0.00,,,0.00,WUHU216DAVISVP2,2013-12-07 22:47:00,
2013-12-07 16:52:00,-9.4,-15.7,30.69,SSW,200,0.0,4.0,73,0.00,,,0.00,WUHU216DAVISVP2,2013-12-07 22:52:00,
2013-12-07 16:57:00,-9.4,-15.7,30.69,SSW,200,0.0,3.0,73,0.00,,,0.00,WUHU216DAVISVP2,2013-12-07 22:57:00,
2013-12-07 17:02:00,-9.5,-15.7,30.69,SSW,199,0.0,3.0,73,0.00,,,0.00,WUHU216DAVISVP2,2013-12-07 23:02:00,
2013-12-07 17:07:00,-9.5,-15.5,30.69,SSW,199,0.0,1.0,74,0.00,,,0.00,WUHU216DAVISVP2,2013-12-07 23:07:00,
2013-12-07 17:12:00,-9.6,-15.6,30.69,SSW,199,0.0,0.0,74,0.00,,,0.00,WUHU216DAVISVP2,2013-12-07 23:12:00,
2013-12-07 17:17:00,-9.6,-15.6,30.69,SSW,199,0.0,3.0,74,0.00,,,0.00,WUHU216DAVISVP2,2013-12-07 23:17:00,
2013-12-07 17:22:00,-9.6,-15.6,30.69,SSW,200,2.0,3.0,74,0.00,,,0.00,WUHU216DAVISVP2,2013-12-07 23:22:00,
2013-12-07 17:27:00,-9.5,-15.5,30.69,South,184,0.0,3.0,74,0.00,,,0.00,WUHU216DAVISVP2,2013-12-07 23:27:00,
2013-12-07 17:32:00,-9.4,-15.4,30.69,South,188,0.0,3.0,74,0.00,,,0.00,WUHU216DAVISVP2,2013-12-07 23:32:00,
2013-12-07 17:37:00,-9.3,-15.3,30.69,South,187,0.0,2.0,74,0.00,,,0.00,WUHU216DAVISVP2,2013-12-07 23:37:00,
2013-12-07 17:42:00,-9.3,-15.3,30.69,South,188,0.0,1.0,74,0.00,,,0.00,WUHU216DAVISVP2,2013-12-07 23:42:00,
2013-12-07 17:47:00,-9.3,-15.6,30.69,South,188,0.0,0.0,73,0.00,,,0.00,WUHU216DAVISVP2,2013-12-07 23:47:00,
2013-12-07 17:52:00,-9.5,-15.7,30.69,South,188,0.0,0.0,73,0.00,,,0.00,WUHU216DAVISVP2,2013-12-07 23:52:00,
2013-12-07 17:57:00,-9.6,-15.6,30.69,South,187,0.0,0.0,74,0.00,,,0.00,WUHU216DAVISVP2,2013-12-07 23:57:00,
2013-12-07 18:02:00,-9.7,-15.7,30.69,South,188,0.0,0.0,74,0.00,,,0.00,WUHU216DAVISVP2,2013-12-08 00:02:00,
2013-12-07 18:07:00,-9.8,-15.8,30.69,South,188,0.0,0.0,74,0.00,,,0.00,WUHU216DAVISVP2,2013-12-08 00:07:00,
2013-12-07 18:12:00,-9.6,-15.6,30.69,South,188,0.0,2.0,74,0.00,,,0.00,WUHU216DAVISVP2,2013-12-08 00:12:00,
2013-12-07 18:17:00,-9.6,-15.6,30.68,South,188,0.0,2.0,74,0.00,,,0.00,WUHU216DAVISVP2,2013-12-08 00:17:00,
2013-12-07 18:22:00,-9.7,-15.7,30.68,South,188,0.0,0.0,74,0.00,,,0.00,WUHU216DAVISVP2,2013-12-08 00:22:00,
2013-12-07 18:27:00,-9.9,-15.9,30.68,South,188,0.0,1.0,74,0.00,,,0.00,WUHU216DAVISVP2,2013-12-08 00:27:00,
2013-12-07 18:32:00,-10.1,-16.1,30.68,South,188,0.0,1.0,74,0.00,,,0.00,WUHU216DAVISVP2,2013-12-08 00:32:00,
2013-12-07 18:37:00,-10.3,-16.3,30.68,South,188,0.0,0.0,74,0.00,,,0.00,WUHU216DAVISVP2,2013-12-08 00:37:00,
2013-12-07 18:42:00,-10.4,-16.4,30.68,South,188,0.0,0.0,74,0.00,,,0.00,WUHU216DAVISVP2,2013-12-08 00:42:00,
2013-12-07 18:47:00,-10.4,-16.4,30.68,South,187,0.0,1.0,74,0.00,,,0.00,WUHU216DAVISVP2,2013-12-08 00:47:00,
2013-12-07 18:52:00,-10.4,-16.4,30.68,South,188,0.0,1.0,74,0.00,,,0.00,WUHU216DAVISVP2,2013-12-08 00:52:00,
2013-12-07 18:57:00,-10.4,-16.1,30.68,South,188,0.0,1.0,75,0.00,,,0.00,WUHU216DAVISVP2,2013-12-08 00:57:00,
2013-12-07 19:02:00,-10.5,-16.2,30.68,South,187,0.0,0.0,75,0.00,,,0.00,WUHU216DAVISVP2,2013-12-08 01:02:00,
2013-12-07 19:07:00,-10.5,-16.2,30.68,South,188,0.0,0.0,75,0.00,,,0.00,WUHU216DAVISVP2,2013-12-08 01:07:00,
2013-12-07 19:12:00,-10.6,-16.5,30.67,South,188,0.0,0.0,74,0.00,,,0.00,WUHU216DAVISVP2,2013-12-08 01:12:00,
2013-12-07 19:17:00,-10.6,-16.5,30.67,South,187,0.0,0.0,74,0.00,,,0.00,WUHU216DAVISVP2,2013-12-08 01:17:00,
2013-12-07 19:22:00,-10.6,-16.3,30.67,South,187,0.0,0.0,75,0.00,,,0.00,WUHU216DAVISVP2,2013-12-08 01:22:00,
2013-12-07 19:27:00,-10.7,-16.4,30.67,South,188,0.0,0.0,75,0.00,,,0.00,WUHU216DAVISVP2,2013-12-08 01:27:00,
2013-12-07 19:32:00,-10.7,-16.4,30.67,South,187,0.0,0.0,75,0.00,,,0.00,WUHU216DAVISVP2,2013-12-08 01:32:00,
2013-12-07 19:37:00,-10.8,-16.5,30.67,South,188,0.0,0.0,75,0.00,,,0.00,WUHU216DAVISVP2,2013-12-08 01:37:00,
2013-12-07 19:42:00,-10.8,-16.5,30.67,South,187,0.0,0.0,75,0.00,,,0.00,WUHU216DAVISVP2,2013-12-08 01:42:00,
2013-12-07 19:47:00,-10.9,-16.6,30.66,South,188,0.0,0.0,75,0.00,,,0.00,WUHU216DAVISVP2,2013-12-08 01:47:00,
2013-12-07 19:52:00,-10.9,-16.6,30.66,South,187,0.0,0.0,75,0.00,,,0.00,WUHU216DAVISVP2,2013-12-08 01:52:00,
2013-12-07 19:57:00,-11.0,-16.7,30.66,South,188,0.0,0.0,75,0.00,,,0.00,WUHU216DAVISVP2,2013-12-08 01:57:00,
2013-12-07 20:02:00,-11.1,-16.8,30.66,South,188,0.0,0.0,75,0.00,,,0.00,WUHU216DAVISVP2,2013-12-08 02:02:00,
2013-12-07 20:07:00,-11.2,-16.9,30.66,South,188,0.0,0.0,75,0.00,,,0.00,WUHU216DAVISVP2,2013-12-08 02:07:00,
2013-12-07 20:12:00,-11.2,-16.9,30.66,South,188,0.0,0.0,75,0.00,,,0.00,WUHU216DAVISVP2,2013-12-08 02:12:00,
2013-12-07 20:17:00,-11.2,-16.9,30.65,South,187,0.0,0.0,75,0.00,,,0.00,WUHU216DAVISVP2,2013-12-08 02:17:00,
2013-12-07 20:23:00,-11.3,-17.0,30.65,South,187,0.0,0.0,75,0.00,,,0.00,WUHU216DAVISVP2,2013-12-08 02:23:00,
2013-12-07 20:28:00,-11.3,-17.0,30.65,South,188,0.0,0.0,75,0.00,,,0.00,WUHU216DAVISVP2,2013-12-08 02:28:00,
2013-12-07 20:33:00,-11.4,-17.1,30.65,South,188,0.0,0.0,75,0.00,,,0.00,WUHU216DAVISVP2,2013-12-08 02:33:00,
2013-12-07 20:38:00,-11.5,-16.9,30.65,South,187,0.0,0.0,76,0.00,,,0.00,WUHU216DAVISVP2,2013-12-08 02:38:00,
2013-12-07 20:43:00,-11.5,-16.9,30.65,South,188,0.0,0.0,76,0.00,,,0.00,WUHU216DAVISVP2,2013-12-08 02:43:00,
2013-12-07 20:48:00,-11.5,-17.2,30.65,SSW,192,0.0,0.0,75,0.00,,,0.00,WUHU216DAVISVP2,2013-12-08 02:48:00,
2013-12-07 20:53:00,-11.6,-17.3,30.65,South,191,0.0,0.0,75,0.00,,,0.00,WUHU216DAVISVP2,2013-12-08 02:53:00,
2013-12-07 20:58:00,-11.7,-17.1,30.64,SSW,192,0.0,0.0,76,0.00,,,0.00,WUHU216DAVISVP2,2013-12-08 02:58:00,
2013-12-07 21:03:00,-11.8,-17.2,30.64,SSW,192,0.0,0.0,76,0.00,,,0.00,WUHU216DAVISVP2,2013-12-08 03:03:00,
2013-12-07 21:08:00,-11.8,-17.2,30.64,SSW,192,0.0,0.0,76,0.00,,,0.00,WUHU216DAVISVP2,2013-12-08 03:08:00,
2013-12-07 21:13:00,-11.8,-17.2,30.64,SSW,192,0.0,0.0,76,0.00,,,0.00,WUHU216DAVISVP2,2013-12-08 03:13:00,
2013-12-07 21:18:00,-12.1,-17.5,30.64,SSW,192,0.0,0.0,76,0.00,,,0.00,WUHU216DAVISVP2,2013-12-08 03:18:00,
2013-12-07 21:23:00,-12.2,-17.8,30.64,South,191,0.0,0.0,75,0.00,,,0.00,WUHU216DAVISVP2,2013-12-08 03:23:00,
2013-12-07 21:28:00,-12.4,-17.8,30.64,South,191,0.0,0.0,76,0.00,,,0.00,WUHU216DAVISVP2,2013-12-08 03:28:00,
2013-12-07 21:33:00,-12.5,-17.9,30.63,SSW,192,0.0,0.0,76,0.00,,,0.00,WUHU216DAVISVP2,2013-12-08 03:33:00,
2013-12-07 21:38:00,-12.4,-17.8,30.64,SSW,198,3.0,5.0,76,0.00,,,0.00,WUHU216DAVISVP2,2013-12-08 03:38:00,
2013-12-07 21:43:00,-12.6,-18.0,30.64,SSW,196,0.0,5.0,76,0.00,,,0.00,WUHU216DAVISVP2,2013-12-08 03:43:00,
2013-12-07 21:48:00,-12.8,-18.2,30.64,SSW,197,0.0,3.0,76,0.00,,,0.00,WUHU216DAVISVP2,2013-12-08 03:48:00,
2013-12-07 21:53:00,-13.0,-18.4,30.64,SSW,197,0.0,1.0,76,0.00,,,0.00,WUHU216DAVISVP2,2013-12-08 03:53:00,
2013-12-07 21:58:00,-13.2,-18.6,30.64,SSW,196,1.0,1.0,76,0.00,,,0.00,WUHU216DAVISVP2,2013-12-08 03:58:00,
2013-12-07 22:03:00,-13.3,-18.7,30.64,SSW,195,0.0,3.0,76,0.00,,,0.00,WUHU216DAVISVP2,2013-12-08 04:03:00,
2013-12-07 22:08:00,-13.4,-18.8,30.64,SSW,198,0.0,4.0,76,0.00,,,0.00,WUHU216DAVISVP2,2013-12-08 04:08:00,
2013-12-07 22:13:00,-13.4,-18.8,30.64,SSW,197,0.0,4.0,76,0.00,,,0.00,WUHU216DAVISVP2,2013-12-08 04:13:00,
2013-12-07 22:18:00,-13.4,-18.8,30.64,SSW,198,0.0,4.0,76,0.00,,,0.00,WUHU216DAVISVP2,2013-12-08 04:18:00,
2013-12-07 22:23:00,-13.2,-18.6,30.64,SSW,196,0.0,4.0,76,0.00,,,0.00,WUHU216DAVISVP2,2013-12-08 04:23:00,
2013-12-07 22:28:00,-13.2,-18.6,30.64,SSW,196,0.0,4.0,76,0.00,,,0.00,WUHU216DAVISVP2,2013-12-08 04:28:00,
2013-12-07 22:33:00,-13.2,-18.6,30.63,SSW,196,0.0,3.0,76,0.00,,,0.00,WUHU216DAVISVP2,2013-12-08 04:33:00,
2013-12-07 22:38:00,-13.3,-18.7,30.63,SSW,196,0.0,3.0,76,0.00,,,0.00,WUHU216DAVISVP2,2013-12-08 04:38:00,
2013-12-07 22:43:00,-13.2,-18.6,30.63,SSW,196,0.0,1.0,76,0.00,,,0.00,WUHU216DAVISVP2,2013-12-08 04:43:00,
2013-12-07 22:48:00,-13.2,-18.6,30.63,SSW,196,0.0,0.0,76,0.00,,,0.00,WUHU216DAVISVP2,2013-12-08 04:48:00,
2013-12-07 22:53:00,-13.2,-18.6,30.62,SSW,196,0.0,0.0,76,0.00,,,0.00,WUHU216DAVISVP2,2013-12-08 04:53:00,
2013-12-07 22:58:00,-13.2,-18.6,30.62,SSW,196,0.0,0.0,76,0.00,,,0.00,WUHU216DAVISVP2,2013-12-08 04:58:00,
2013-12-07 23:01:00,-13.1,-18.5,30.62,SSW,196,0.0,0.0,76,0.00,,,0.00,WUHU216DAVISVP2,2013-12-08 05:01:00,
2013-12-07 23:02:00,-13.0,-18.4,30.62,SSW,196,0.0,0.0,76,0.00,,,0.00,WUHU216DAVISVP2,2013-12-08 05:02:00,
2013-12-07 23:07:00,-12.8,-18.2,30.62,SSW,196,0.0,0.0,76,0.00,,,0.00,WUHU216DAVISVP2,2013-12-08 05:07:00,
2013-12-07 23:12:00,-12.9,-18.3,30.62,SSW,196,0.0,0.0,76,0.00,,,0.00,WUHU216DAVISVP2,2013-12-08 05:12:00,
2013-12-07 23:17:00,-13.1,-18.7,30.62,SSW,196,3.0,3.0,75,0.00,,,0.00,WUHU216DAVISVP2,2013-12-08 05:17:00,
2013-12-07 23:22:00,-13.5,-19.1,30.62,SSW,196,0.0,3.0,75,0.00,,,0.00,WUHU216DAVISVP2,2013-12-08 05:22:00,
2013-12-07 23:27:00,-13.8,-19.4,30.62,SSW,196,0.0,2.0,75,0.00,,,0.00,WUHU216DAVISVP2,2013-12-08 05:27:00,
2013-12-07 23:32:00,-13.9,-19.2,30.62,SSW,196,0.0,1.0,76,0.00,,,0.00,WUHU216DAVISVP2,2013-12-08 05:32:00,
2013-12-07 23:37:00,-13.9,-19.2,30.62,SSW,196,0.0,1.0,76,0.00,,,0.00,WUHU216DAVISVP2,2013-12-08 05:37:00,
2013-12-07 23:42:00,-14.0,-19.3,30.62,SSW,196,0.0,2.0,76,0.00,,,0.00,WUHU216DAVISVP2,2013-12-08 05:42:00,
2013-12-07 23:47:00,-14.1,-19.4,30.62,SSW,196,0.0,2.0,76,0.00,,,0.00,WUHU216DAVISVP2,2013-12-08 05:47:00,
2013-12-07 23:52:00,-14.1,-19.4,30.62,South,190,0.0,3.0,76,0.00,,,0.00,WUHU216DAVISVP2,2013-12-08 05:52:00,
2013-12-07 23:57:00,-14.1,-19.4,30.62,South,190,0.0,3.0,76,0.00,,,0.00,WUHU216DAVISVP2,2013-12-08 05:57:00,